Regional Weather Roundup
Issued by NWS

Current Version | Previous Version | Text Only | Print | Product List | Glossary On
Versions: 1 2 3 4 5 6 7 8 9 10 11 12 13 14 15 16 17 18 19 20 21 22 23 24 25 26 27 28 29 30 31 32 33 34 35 36 37 38 39 40 41 42 43 44 45 46 47 48 49 50
000
ASUS42 KTBW 281910
RWRFL
FLORIDA REGIONAL WEATHER ROUNDUP
NATIONAL WEATHER SERVICE TAMPA BAY RUSKIN FL
200 PM EST SAT FEB 28 2015

NOTE: "FAIR" INDICATES FEW OR NO CLOUDS BELOW 12,000 FEET WITH NO
SIGNIFICANT WEATHER AND/OR OBSTRUCTIONS TO VISIBILITY.


FLZ001>010-012>015-112-114-115-282000-
PANHANDLE FLORIDA

CITY           SKY/WX    TMP DP  RH WIND       PRES   REMARKS
PENSACOLA      CLOUDY    59  45  59 E8        30.37F
PENSACOLA NAS  CLOUDY    58  44  60 NE14      30.36F
MILTON NAS     CLOUDY    59  45  59 E10       30.37F
CRESTVIEW      CLOUDY    58  45  62 E8        30.40F
DUKE FIELD     CLOUDY    58  46  64 E10       30.36F
VALPARAISO     CLOUDY    58  46  65 E12       30.37F
MARY ESTHER    CLOUDY    58  43  57 E16       30.36F
TRI COUNTY     CLOUDY    51  45  79 NE8       30.42F
PANAMA CITY    CLOUDY    53  47  79 NE16G23   30.37F
TYNDALL AFB    CLOUDY    55  49  81 NE12G21   30.36F
APALACHICOLA   CLOUDY    59  49  69 NE12      30.36F

STATION/POSITION SKY/WX   TEMP    WIND        PRES    WAVE   SWELL
                          AIR SEA DIR/SP/G            HT/PER HT/PER
                          (F)     (DEG/KT/KT) (MB)    (FT/S) (FT/S)
30.1N   87.6W              54 62   70/ 17/ 19 1027.6F   5/ 6   2/10
29.2N   88.2W              62 70   90/ 14/ 16 1027.2F   5/ 7   5/ 7
28.7N   86.0W              60 67   80/ 19/ 21 1026.3F   6/ 7
PANAMA CITY BEAC           53 56   40/ 13/ 18 1028.0F
CAPE SAN BLAS    NOT AVBL
TOWER C                    53      50/ 25/ 27 1027.1F
28.5N   84.5W              60 65   70/ 17/ 21 1025.8F   5/ 6

$$
FLZ011-016>038-118-127-128-134-139-239-282000-
NORTH FLORIDA

CITY           SKY/WX    TMP DP  RH WIND       PRES   REMARKS
MARIANNA       LGT RAIN  49  48  97 NE10      30.42F FOG     WCI  45
TALLAHASSEE    CLOUDY    52  47  83 E10       30.40F
PERRY          CLOUDY    52  49  92 NE8       30.40F
CROSS CITY       N/A     59  54  83 NE9G17    30.36F
LAKE CITY      CLOUDY    52  50  93 NE8G16    30.41S FOG
GAINESVILLE    CLOUDY    58  57  97 NE15      30.37F
MAYPORT NAS    LGT RAIN  53  52  96 MISG      30.40F FOG
JACKSONVILLE   CLOUDY    51  51 100 NE17      30.41F FOG
JAX NAS        CLOUDY    56  52  86 NE16      30.41F FOG
JAX CRAIG      CLOUDY    53  51  93 NE15G23   30.40F FOG
JAX CECIL      CLOUDY    52  50  93 NE10      30.41F FOG
FERNANDINA BEA CLOUDY    55  54  94 NE17G23   30.42F
ST AUGUSTINE   LGT RAIN  57  57 100 N13G18    30.39F FOG

STATION/POSITION SKY/WX   TEMP    WIND        PRES    WAVE   SWELL
                          AIR SEA DIR/SP/G            HT/PER HT/PER
                          (F)     (DEG/KT/KT) (MB)    (FT/S) (FT/S)
SHELL POINT      NOT AVBL
KEATON BEACH               54      40/ 15/ 20 1027.9F
CEDAR KEY                  59      70/ 14/ 16 1027.9F
FERNANDINA                 51 54   30/ 12/ 19 1030.2F
30.7N   81.3W                 53                N/A     8/ 7   2/11
MAYPORT                    53 55   20/ 17/ 24 1029.7F
31.4N   80.9W              50 52   40/ 25/ 29 1030.7F   8/ 7   3/ 8
ST AUGUSTINE               55     350/ 11/ 12 1029.1F

$$
FLZ040-043>046-052-053-057-058-063-144-282000-
INTERIOR CENTRAL FLORIDA

CITY           SKY/WX    TMP DP  RH WIND       PRES   REMARKS
OCALA          CLOUDY    64  57  77 NE7       30.34F
THE VILLAGES     N/A     64  64 100 N7        30.24F FOG
LEESBURG       CLOUDY    66  63  90 NE9       30.33F
SANFORD        LGT RAIN  66  62  87 E9        30.33F
ORLANDO EXEC   LGT RAIN  66  63  90 E15       30.31F FOG
ORLANDO INTL   LGT RAIN  67  65  93 NE12      30.31F
KISSIMMEE      LGT RAIN  66  66 100 NE14      30.31F FOG
WINTER HAVEN   RAIN      66  64  93 NE13      30.30F FOG
LAKELAND       LGT RAIN  66  64  94 NE15      30.29F
BARTOW         HVY RAIN  63  63 100 N17G29    30.30F VSB 1
OKEECHOBEE     CLOUDY    73  68  83 E10G17    30.26F

$$
FLZ041-047-054-059-064-141-147-282000-
EAST CENTRAL FLORIDA

CITY           SKY/WX    TMP DP  RH WIND       PRES   REMARKS
ORMOND BEACH   LGT RAIN  63  59  88 E6        30.36F
DAYTONA BEACH  LGT RAIN  66  61  84 E8        30.35F
DELAND         CLOUDY   N/A N/A N/A E8        30.35F
NEW SMYRNA BEA CLOUDY    64  59  82 E10       30.36F FOG
JFK SPACE CTR  DRIZZLE   68  61  79 E10       30.32F
TITUSVILLE     CLOUDY    66  63  88 E23       30.33F FOG
CAPE CANAVERAL CLOUDY    66  63  90 E9        30.30F
PATRICK AFB    LGT RAIN  66  65  98 NE16      30.29F FOG
MELBOURNE      CLOUDY    67  64  90 E16       30.29F
VERO BEACH     CLOUDY    71  64  78 E14G24    30.28F
FT PIERCE      CLOUDY    71  68  90 E12       30.26F
STUART         TSTM      72  68  88 E14G22    30.27F

STATION/POSITION SKY/WX   TEMP    WIND        PRES    WAVE   SWELL
                          AIR SEA DIR/SP/G            HT/PER HT/PER
                          (F)     (DEG/KT/KT) (MB)    (FT/S) (FT/S)
28.5N   80.2W              70 69   70/ 21/ 27 1026.5F
28.9N   78.5W              69 72   70/ 23/ 27 1026.9F   8/ 8   3/11
TRIDENT PIER     NOT AVBL
28.4N   80.5W                 62                N/A     5/ 7   2/11
27.6N   80.2W                 70                N/A     8/ 7   2/12

$$
FLZ050-056-061-142-242-148-248-149-249-151-251-155-255-
160-260-282000-
WEST CENTRAL FLORIDA

CITY           SKY/WX    TMP DP  RH WIND       PRES   REMARKS
CRYSTAL RIVER  DRIZZLE   64  59  82 E10       30.31F
INVERNESS      RAIN      63  59  88 E6        30.32F
BROOKSVILLE    LGT RAIN  65  63  93 NE10      30.30F
ZEPHYRHILLS    LGT RAIN  63  63 100 CALM      30.31F
CLEARWATER     RAIN      64  63  96 NE10      30.29F FOG
TAMPA INTL     HVY RAIN  65  62  90 NE7       30.30S FOG
TAMPA EXEC     RAIN      68  64  88 NE6         N/A
PLANT CITY     LGT RAIN N/A N/A N/A E10G18    30.30F
MACDILL AFB    HVY RAIN  64  64 100 NE13      30.28F FOG
PETER O KNIGHT RAIN      68  66  94 NE9       30.29F
ST PETERSBURG  RAIN      64  62  93 E9        30.27F FOG
SARASOTA       CLOUDY    69  65  86 NE12      30.25F
VENICE         CLOUDY    79  68  69 NE10      30.24F

STATION/POSITION SKY/WX   TEMP    WIND        PRES    WAVE   SWELL
                          AIR SEA DIR/SP/G            HT/PER HT/PER
                          (F)     (DEG/KT/KT) (MB)    (FT/S) (FT/S)
CEDAR KEY                  59      70/ 14/ 16 1027.9F
28.5N   84.5W              60 65   70/ 17/ 21 1025.8F   5/ 6
27.3N   84.3W                 69                N/A     5/ 7
CLEARWATER BEACH           64 61   60/  8/ 12 1025.9F
MIDDLE TAMPA BAY           63      50/ 10/ 11 1025.8F
VENICE                     77 62   70/  9/ 11 1023.1F

$$
FLZ066-069-070-075>078-162-262-165-265-282000-
SOUTHWEST FLORIDA AND KEYS

CITY           SKY/WX    TMP DP  RH WIND       PRES   REMARKS
PUNTA GORDA    PTSUNNY   80  68  66 E10       30.24F
FT MYERS       PTSUNNY   82  68  62 E7        30.20F
SOUTHWEST INTL MOSUNNY   81  68  64 NE8       30.21F
NAPLES         PTSUNNY   82  69  64 W9        30.19F
MARCO ISLAND   CLOUDY    82  70  65 S6        30.19F
IMMOKALEE      MOCLDY   N/A N/A N/A NE13      30.21F
MARATHON       MOSUNNY   82  74  76 SE9       30.19F
KEY WEST NAS   MOSUNNY   82  72  71 E15       30.19F
KEY WEST INTL  SUNNY     81  74  79 E12       30.19F

STATION/POSITION SKY/WX   TEMP    WIND        PRES    WAVE   SWELL
                          AIR SEA DIR/SP/G            HT/PER HT/PER
                          (F)     (DEG/KT/KT) (MB)    (FT/S) (FT/S)
VENICE                     77 62   70/  9/ 11 1023.1F
NAPLES                     73 66  280/  7/  7 1022.5F
26.0N   85.6W              72 77   80/ 12/ 14 1023.3F   6/ 7   5/ 7
DRY TORTUGAS               69      70/ 10/ 11 1022.9F
SAND KEY                   75      70/  8/  9 1022.4F
SOMBRERO KEY               77      90/  9/ 10 1022.9F
LONG KEY                   77 77   90/  9/ 11 1024.0F
MOLASSES REEF              77 76  100/ 13/ 14 1022.5F

$$
FLZ067-068-071>074-168-172>174-282000-
SOUTHEAST FLORIDA

CITY           SKY/WX    TMP DP  RH WIND       PRES   REMARKS
W PALM BEACH   CLOUDY    76  70  82 E24G30    30.21F THUNDER
FT LAUDER-EXEC LGT RAIN  76  70  82 E15G23    30.22F
FT LAUDERDALE  RAIN      73  71  93 N9G22     30.22F FOG
POMPANO BEACH  CLOUDY    76  72  87 E14       30.22F
PEMBROKE PINES HVY RAIN  74  70  87 E13       30.23F FOG
OPA LOCKA      HVY RAIN N/A N/A N/A SE13      30.23F
MIAMI          LGT RAIN  71  64  78 E17G26    30.22F
WEST KENDALL   PTSUNNY   77  66  68 E12       30.22F
HOMESTEAD      PTSUNNY   81  72  75 NE13      30.20F

STATION/POSITION SKY/WX   TEMP    WIND        PRES    WAVE   SWELL
                          AIR SEA DIR/SP/G            HT/PER HT/PER
                          (F)     (DEG/KT/KT) (MB)    (FT/S) (FT/S)
PORT EVERGLADES            71     340/  8/ 15 1023.4
VIRGINIA KEY               70 75  310/  8/ 13 1023.1S
LAKE WORTH                 74 73   90/ 19/ 24 1023.0F


USA.gov is the U.S. government's official web portal to all federal, state and local government web resources and services.